Location: Christian Reformed Church
(43.0975°N, 93.8113°W)
Time: 18:52:51
(UTC+00:00)

Meteor 1-25 Rocket - Pass Details

Date: 22 March 2026
Orbit: 836 x 889 km, 81.2° (Epoch: 14 April)

Event Time Altitude Azimuth Distance (km) Brightness Sun altitude
Rises 09:13:59 0° 3° (N) 3,486 7.9 -31.7°
Reaches altitude 10° 09:17:16 10° 22° (NNE) 2,551 7.3 -31.3°
Maximum altitude 09:21:11 18° 65° (ENE) 2,025 6.9 -30.7°
Drops below altitude 10° 09:25:05 10° 107° (ESE) 2,552 7.1 -30.1°
Sets 09:28:21 0° 126° (SE) 3,488 7.7 -29.6°
